This demonstration page uses our WeatherBlox Daily Observations layout. Learn more.

38.88101, -77.10428

Hourly Observations for August 13, 2017

Temp ( °F °C ) Dew Point ( °F °C ) Humidity (%) Winds ( mph kmh ) Pressure ( in mb ) Visibility ( mi km ) Precip ( " mm )
12:52 am 00:52 Mostly Cloudy 73 22.8 71 21.7 94 94 WNW 6 9 29.92 1013 9 14.48406 0 0
1:01 am 01:01 Cloudy 73 22.8 71 21.7 94 94 WNW 7 11 29.91 1013 10 16.0934 0 0
1:49 am 01:49 Cloudy 73 23 72 22 94 94 NW 5 7 29.91 1013 10 16.0934 0 0
1:52 am 01:52 Cloudy 73 22.8 71 21.7 94 94 NW 5 7 29.91 1013 10 16.0934 0 0
2:52 am 02:52 Cloudy 73 22.8 70 21.1 90 90 VRB 3 6 29.91 1013 10 16.0934 0 0
3:52 am 03:52 Mostly Cloudy 73 22.8 68 20 84 84 NNW 13 20 29.91 1013 10 16.0934 0 0
4:52 am 04:52 Mostly Cloudy 72 22.2 66 18.9 82 82 NW 12 19 29.92 1013 10 16.0934 0 0
5:52 am 05:52 Mostly Cloudy 70 21.1 66 18.9 87 87 NNW 9 15 29.93 1014 10 16.0934 0 0
6:52 am 06:52 Mostly Cloudy 70 21.1 65 18.3 84 84 NNW 9 15 29.96 1014 10 16.0934 0 0
7:52 am 07:52 Mostly Cloudy 71 21.7 65 18.3 81 81 NNW 10 17 29.97 1015 10 16.0934 0 0
8:52 am 08:52 Mostly Cloudy 73 22.8 65 18.3 76 76 N 9 15 29.99 1016 10 16.0934 0 0
9:52 am 09:52 Mostly Cloudy 75 23.9 65 18.3 71 71 N 7 11 30.01 1016 10 16.0934 0 0
10:52 am 10:52 Mostly Cloudy 78 25.6 63 17.2 60 60 N 9 15 30.01 1016 10 16.0934 0 0
11:52 am 11:52 Mostly Cloudy 80 26.7 64 17.8 58 58 NNW 9 15 30.01 1016 10 16.0934 0 0
12:52 pm 12:52 Partly Cloudy 82 27.8 64 17.8 55 55 N 9 15 30 1016 10 16.0934 0 0
1:52 pm 13:52 Mostly Cloudy 83 28.3 62 16.7 49 49 NNW 6 9 30 1016 10 16.0934 0 0
2:52 pm 14:52 Partly Cloudy 84 28.9 63 17.2 49 49 VRB 3 6 30 1016 10 16.0934 0 0
3:52 pm 15:52 Partly Cloudy 85 29.4 64 17.8 50 50 NNE 7 11 30 1016 10 16.0934 0 0
4:52 pm 16:52 Mostly Sunny 85 29.4 62 16.7 46 46 Calm 29.99 1016 10 16.0934 0 0
5:52 pm 17:52 Partly Cloudy 83 28.3 62 16.7 49 49 NE 3 6 29.99 1016 10 16.0934 0 0
6:52 pm 18:52 Partly Cloudy 83 28.3 64 17.8 53 53 ENE 8 13 29.99 1016 10 16.0934 0 0
7:52 pm 19:52 Partly Cloudy 81 27.2 64 17.8 57 57 ESE 12 19 30 1016 10 16.0934 0 0
8:52 pm 20:52 Partly Cloudy 77 25 67 19.4 71 71 ESE 8 13 30.01 1016 10 16.0934 0 0
9:52 pm 21:52 Mostly Clear 76 24.4 67 19.4 74 74 SSE 3 6 30.03 1017 10 16.0934 0 0
10:52 pm 22:52 Mostly Clear 77 25 66 18.9 69 69 Calm 30.04 1017 10 16.0934 0 0
11:52 pm 23:52 Mostly Clear 75 23.9 66 18.9 74 74 ENE 5 7 30.04 1017 10 16.0934 0 0

Powered by AerisWeather